This is the latest recevied weather packets stored in our database for station/object HB0PJ-13. If no packets are shown the sender has not sent any weather packets the latest 10 day(s).
| Time | Temp. | Humidity | Pressure | Rain* | Wind** | Luminosity | Snow |
|---|---|---|---|---|---|---|---|
| 1778153646 | 18.33° C | 46% | 957.5 hPa | - | - | 48 W/m² | - |
| 1778152926 | 18.33° C | 48% | 957.7 hPa | - | - | 59 W/m² | - |
| 1778152685 | 17.78° C | 48% | 957.7 hPa | - | - | 59 W/m² | - |
| 1778152206 | 17.78° C | 48% | 957.7 hPa | - | - | 58 W/m² | - |
| 1778151965 | 17.78° C | 48% | 957.7 hPa | - | - | 62 W/m² | - |
| 1778151005 | 17.22° C | 51% | 957.9 hPa | - | - | 65 W/m² | - |
| 1778150886 | 16.67° C | 50% | 958 hPa | - | - | 66 W/m² | - |
| 1778150766 | 16.67° C | 50% | 958 hPa | - | - | 62 W/m² | - |
| 1778150526 | 16.67° C | 50% | 957.9 hPa | - | - | 54 W/m² | - |
| 1778150406 | 16.67° C | 49% | 958.1 hPa | - | - | 59 W/m² | - |
| 1778149805 | 16.11° C | 54% | 958.2 hPa | - | - | 59 W/m² | - |
| 1778149565 | 16.11° C | 54% | 958.1 hPa | - | - | 42 W/m² | - |
| 1778148966 | 16.11° C | 54% | 958.2 hPa | - | - | 72 W/m² | - |
| 1778148726 | 16.11° C | 54% | 958.3 hPa | - | - | 38 W/m² | - |
| 1778148486 | 16.67° C | 54% | 958.4 hPa | - | - | 39 W/m² | - |
| 1778148246 | 16.67° C | 53% | 958.4 hPa | - | - | 49 W/m² | - |
| 1778148126 | 16.67° C | 54% | 958.3 hPa | - | - | 55 W/m² | - |
| 1778148006 | 16.67° C | 55% | 958.4 hPa | - | - | 58 W/m² | - |
| 1778147646 | 16.11° C | 53% | 958.4 hPa | - | - | 69 W/m² | - |
| 1778147526 | 16.11° C | 55% | 958.5 hPa | - | - | 69 W/m² | - |
| 1778147286 | 16.11° C | 56% | 958.5 hPa | - | - | 74 W/m² | - |
| 1778146926 | 16.11° C | 57% | 958.4 hPa | - | - | 72 W/m² | - |
| 1778146686 | 16.11° C | 58% | 958.5 hPa | - | - | 65 W/m² | - |
| 1778146566 | 16.11° C | 59% | 958.5 hPa | - | - | 62 W/m² | - |
| 1778146326 | 16.11° C | 59% | 958.5 hPa | - | - | 42 W/m² | - |
* Rain since midnight (hover to see other rain measurements)
** Current wind speed in m/s (hover to see current wind gust speed)